Simultaneous Nadir Overpasses (SNOs) Predictions

Prediction of SNOs between AQUA and METOP-A Satellite Orbit:

Table of predicted SNOs for the next 14.0 days since TLE Epoch: 3/20/2021
Index Date (AQUA) Time (AQUA) Lat,Lon (AQUA) SZA (AQUA ) Date (METOP-A) Time (METOP-A) Lat,Lon (METOP-A) SZA (METOP-A ) Distance(km) Time Diff (sec)
1 03/21/2021 11:49:28 77.20, -12.60 77.27 03/21/2021 11:49:04 77.18, -12.56 77.26 2.36 24
2 03/21/2021 12:38:54 -77.22, 154.96 102.73 03/21/2021 12:39:44 -77.24, 155.00 102.72 2.13 50
3 03/24/2021 07:23:43 77.18, 53.92 76.12 03/24/2021 07:23:25 77.21, 53.90 76.16 3.60 18
4 03/24/2021 08:13:10 -77.24,-138.69 103.82 03/24/2021 08:14:06 -77.23,-138.71 103.85 2.06 56
5 03/27/2021 02:08:23 -76.81, -45.91 105.43 03/27/2021 02:07:17 -76.74, -48.93 105.27 77.21 66
6 03/27/2021 02:57:59 77.21, 120.24 75.04 03/27/2021 02:57:47 77.19, 120.16 75.03 2.61 12
7 03/27/2021 03:47:26 -77.27, -72.36 104.91 03/27/2021 03:48:27 -77.25, -72.25 104.94 3.08 61
8 03/29/2021 21:42:43 -77.07, 19.55 106.23 03/29/2021 21:41:32 -76.99, 18.37 106.20 30.79 71
9 03/29/2021 22:32:14 77.24,-173.45 73.97 03/29/2021 22:32:07 77.22,-173.40 73.94 3.13 7
10 03/29/2021 23:21:40 -77.25, -5.86 106.03 03/29/2021 23:22:47 -77.28, -5.80 106.03 3.34 67
11 04/01/2021 17:17:01 -77.20, 85.50 107.17 04/01/2021 17:15:49 -77.19, 85.52 107.16 1.22 72
12 04/01/2021 18:06:29 77.23,-106.99 72.86 04/01/2021 18:06:28 77.24,-106.96 72.86 0.79 1



Historial Predications of SNOs between AQUA and METOP-A
